| time (UTC) | temp C | wind direction | speed KPH | gust KPH | rain 1hr cm | rain 24hr cm | rain mn cm | humidity % | barometer mb |
| 20260510075646 | 20 | 19 | 4.8 | 6.4 | 0.00 | 0.00 | 0.00 | 98 | 1012.2 |
| 20260510075147 | 20 | 326 | 1.6 | 4.8 | 0.00 | 0.00 | 0.00 | 98 | 1011.9 |
| 20260510074646 | 20 | 332 | 1.6 | 8.0 | 0.00 | 0.00 | 0.00 | 99 | 1012.2 |
| 20260510074147 | 20 | 337 | 3.2 | 6.4 | 0.00 | 0.00 | 0.00 | 99 | 1012.2 |
| 20260510073647 | 20 | 12 | 3.2 | 4.8 | 0.00 | 0.00 | 0.00 | 99 | 1011.9 |
| 20260510073147 | 19 | 45 | 1.6 | 4.8 | 0.00 | 0.00 | 0.00 | 99 | 1011.9 |
| 20260510072647 | 20 | 358 | 3.2 | 6.4 | 0.00 | 0.00 | 0.00 | 99 | 1011.9 |
| 20260510072146 | 19 | 338 | 0.0 | 8.0 | 0.00 | 0.00 | 0.00 | 99 | 1011.9 |
| 20260510071654 | 20 | 52 | 0.0 | 6.4 | 0.00 | 0.00 | 0.00 | 99 | 1011.9 |
| 20260510071147 | 20 | 35 | 3.2 | 6.4 | 0.00 | 0.00 | 0.00 | 99 | 1011.9 |
| 20260510070646 | 20 | 355 | 3.2 | 8.0 | 0.00 | 0.00 | 0.00 | 99 | 1011.9 |
| 20260510070146 | 19 | 2 | 3.2 | 8.0 | 0.00 | 0.00 | 0.00 | 99 | 1012.2 |
| 20260510065646 | 19 | 334 | 4.8 | 6.4 | 0.00 | 0.00 | 0.00 | 99 | 1011.9 |
| 20260510065146 | 20 | 1 | 3.2 | 8.0 | 0.00 | 0.00 | 0.00 | 99 | 1011.9 |
| 20260510064646 | 20 | 18 | 4.8 | 6.4 | 0.00 | 0.00 | 0.00 | 99 | 1011.9 |
| 20260510064148 | 19 | 355 | 4.8 | 6.4 | 0.00 | 0.00 | 0.00 | 99 | 1012.2 |
| 20260510063647 | 20 | 335 | 0.0 | 4.8 | 0.00 | 0.00 | 0.00 | 99 | 1011.9 |
| 20260510063146 | 20 | 344 | 4.8 | 6.4 | 0.00 | 0.00 | 0.00 | 99 | 1012.2 |
| 20260510062646 | 20 | 327 | 4.8 | 8.0 | 0.00 | 0.00 | 0.00 | 99 | 1012.2 |
| 20260510062147 | 20 | 10 | 6.4 | 8.0 | 0.00 | 0.00 | 0.00 | 99 | 1011.9 |
| 20260510061646 | 20 | 348 | 4.8 | 8.0 | 0.00 | 0.00 | 0.00 | 99 | 1011.9 |
| 20260510061147 | 20 | 330 | 1.6 | 6.4 | 0.00 | 0.00 | 0.00 | 99 | 1011.9 |
| 20260510060647 | 20 | 330 | 3.2 | 4.8 | 0.00 | 0.00 | 0.00 | 99 | 1011.9 |
| 20260510060146 | 20 | 310 | 4.8 | 6.4 | 0.00 | 0.00 | 0.00 | 99 | 1012.2 |
| 20260510055647 | 20 | 325 | 1.6 | 3.2 | 0.00 | 0.00 | 0.00 | 99 | 1011.9 |
| 20260510055147 | 20 | 298 | 3.2 | 4.8 | 0.00 | 0.00 | 0.00 | 99 | 1012.2 |
| 20260510054646 | 20 | 344 | 3.2 | 6.4 | 0.00 | 0.00 | 0.00 | 99 | 1012.2 |
| 20260510054146 | 20 | 37 | 3.2 | 4.8 | 0.00 | 0.00 | 0.00 | 98 | 1011.9 |
| 20260510053647 | 20 | 341 | 0.0 | 4.8 | 0.05 | 0.00 | 0.00 | 98 | 1011.9 |
| 20260510053147 | 20 | 7 | 1.6 | 4.8 | 0.05 | 0.00 | 0.00 | 98 | 1011.9 |
| 20260510052646 | 20 | 41 | 3.2 | 6.4 | 0.00 | 0.00 | 0.00 | 98 | 1011.9 |
| 20260510052147 | 20 | 16 | 3.2 | 6.4 | 0.00 | 0.00 | 0.00 | 98 | 1011.9 |
| 20260510051647 | 20 | 33 | 1.6 | 6.4 | 0.00 | 0.00 | 0.00 | 98 | 1011.9 |
| 20260510051146 | 20 | 355 | 3.2 | 6.4 | 0.00 | 0.00 | 0.00 | 98 | 1011.9 |
| 20260510050646 | 20 | 142 | 3.2 | 4.8 | 0.00 | 0.00 | 0.00 | 98 | 1011.9 |
| 20260510050146 | 20 | 143 | 3.2 | 8.0 | 0.00 | 0.00 | 0.00 | 98 | 1011.9 |
| 20260510045648 | 20 | 128 | 4.8 | 9.7 | 0.00 | 0.00 | 4.17 | 98 | 1011.9 |
| 20260510045146 | 20 | 146 | 3.2 | 9.7 | 0.00 | 0.00 | 4.17 | 99 | 1012.2 |
| 20260510044647 | 20 | 154 | 11.3 | 14.5 | 0.00 | 0.00 | 4.17 | 99 | 1011.9 |
| 20260510044146 | 20 | 155 | 3.2 | 8.0 | 0.00 | 0.00 | 4.17 | 99 | 1011.9 |
| 20260510043647 | 20 | 0 | 3.2 | 4.8 | 0.00 | 0.00 | 4.17 | 99 | 1012.2 |
| 20260510043146 | 20 | 107 | 0.0 | 4.8 | 0.00 | 0.00 | 4.17 | 99 | 1012.2 |
| 20260510042646 | 20 | 35 | 3.2 | 6.4 | 0.00 | 0.00 | 4.17 | 99 | 1012.5 |
| 20260510042147 | 20 | 147 | 4.8 | 11.3 | 0.00 | 0.00 | 4.17 | 99 | 1012.2 |
| 20260510041646 | 20 | 112 | 6.4 | 9.7 | 0.00 | 0.00 | 4.17 | 99 | 1012.2 |
| 20260510041146 | 20 | 142 | 4.8 | 12.9 | 0.00 | 0.00 | 4.17 | 99 | 1011.9 |
| 20260510040646 | 20 | 170 | 9.7 | 16.1 | 0.00 | 0.00 | 4.17 | 99 | 1012.2 |
| 20260510040147 | 20 | 162 | 8.0 | 19.3 | 0.00 | 0.00 | 4.17 | 99 | 1011.9 |
| 20260510035647 | 20 | 160 | 11.3 | 17.7 | 0.00 | 0.00 | 4.17 | 99 | 1012.2 |
| 20260510035146 | 20 | 174 | 11.3 | 14.5 | 0.00 | 0.00 | 4.17 | 99 | 1012.5 |
| 20260510034646 | 20 | 172 | 9.7 | 16.1 | 0.00 | 0.00 | 4.17 | 99 | 1012.5 |
| 20260510034146 | 20 | 165 | 9.7 | 11.3 | 0.00 | 0.00 | 4.17 | 99 | 1012.9 |
| 20260510033646 | 20 | 139 | 4.8 | 11.3 | 0.00 | 0.00 | 4.17 | 99 | 1012.9 |
| 20260510033146 | 20 | 176 | 4.8 | 8.0 | 0.00 | 0.00 | 4.17 | 99 | 1012.9 |
| 20260510032646 | 20 | 173 | 4.8 | 9.7 | 0.00 | 0.00 | 4.17 | 99 | 1012.9 |
| 20260510032146 | 20 | 157 | 4.8 | 8.0 | 0.00 | 0.00 | 4.17 | 99 | 1012.9 |
| 20260510031647 | 20 | 199 | 6.4 | 6.4 | 0.00 | 0.00 | 4.17 | 99 | 1013.2 |
| 20260510031147 | 20 | 189 | 3.2 | 6.4 | 0.00 | 0.00 | 4.17 | 99 | 1012.9 |
| 20260510030646 | 20 | 208 | 3.2 | 4.8 | 0.00 | 0.00 | 4.17 | 99 | 1013.2 |
| 20260510030148 | 20 | 180 | 3.2 | 4.8 | 0.00 | 0.00 | 4.17 | 99 | 1013.2 |
| 20260510025647 | 20 | 347 | 3.2 | 4.8 | 0.00 | 0.00 | 4.17 | 99 | 1012.9 |
| 20260510025146 | 20 | 293 | 3.2 | 4.8 | 0.00 | 0.00 | 4.17 | 99 | 1012.9 |
| 20260510024646 | 20 | 186 | 3.2 | 4.8 | 0.00 | 0.00 | 4.17 | 99 | 1012.9 |
| 20260510024147 | 20 | 184 | 4.8 | 8.0 | 0.00 | 0.00 | 4.17 | 99 | 1012.9 |
| 20260510023646 | 20 | 228 | 4.8 | 11.3 | 0.00 | 0.00 | 4.17 | 99 | 1012.9 |
| 20260510023146 | 20 | 200 | 4.8 | 8.0 | 0.00 | 0.00 | 4.17 | 99 | 1012.5 |
| 20260510022646 | 20 | 251 | 1.6 | 6.4 | 0.00 | 0.00 | 4.17 | 99 | 1012.5 |
| 20260510022146 | 20 | 143 | 4.8 | 8.0 | 0.00 | 0.00 | 4.17 | 98 | 1012.5 |
| 20260510021646 | 20 | 193 | 4.8 | 8.0 | 0.00 | 0.00 | 4.17 | 98 | 1012.5 |
| 20260510021147 | 20 | 180 | 3.2 | 6.4 | 0.00 | 0.00 | 4.17 | 98 | 1012.5 |
| 20260510020646 | 20 | 180 | 4.8 | 8.0 | 0.00 | 0.00 | 4.17 | 98 | 1012.5 |
| 20260510020147 | 20 | 174 | 4.8 | 8.0 | 0.00 | 0.00 | 4.17 | 98 | 1012.5 |
| 20260510015646 | 20 | 127 | 4.8 | 6.4 | 0.00 | 0.00 | 4.17 | 98 | 1012.5 |
| 20260510015148 | 20 | 162 | 4.8 | 14.5 | 0.00 | 0.00 | 4.17 | 98 | 1012.5 |
| 20260510014646 | 20 | 153 | 6.4 | 16.1 | 0.00 | 0.00 | 4.17 | 98 | 1012.2 |
| 20260510014146 | 20 | 189 | 1.6 | 9.7 | 0.00 | 0.00 | 4.17 | 99 | 1012.2 |
| 20260510013646 | 20 | 180 | 1.6 | 8.0 | 0.00 | 0.00 | 4.17 | 99 | 1012.2 |
| 20260510013146 | 20 | 105 | 6.4 | 11.3 | 0.00 | 0.00 | 4.17 | 99 | 1012.2 |
| 20260510012648 | 20 | 139 | 8.0 | 12.9 | 0.00 | 0.00 | 4.17 | 99 | 1011.9 |
| 20260510012146 | 20 | 155 | 4.8 | 12.9 | 0.00 | 0.00 | 4.17 | 99 | 1011.9 |
| 20260510011647 | 20 | 192 | 4.8 | 16.1 | 0.00 | 0.00 | 4.17 | 99 | 1011.9 |
| 20260510011146 | 20 | 184 | 11.3 | 12.9 | 0.00 | 0.00 | 4.17 | 99 | 1011.9 |
| 20260510010647 | 20 | 6 | 1.6 | 9.7 | 0.00 | 0.00 | 4.17 | 99 | 1011.9 |
| 20260510010146 | 20 | 143 | 8.0 | 14.5 | 0.00 | 0.00 | 4.17 | 99 | 1011.9 |
| 20260510005647 | 20 | 173 | 6.4 | 8.0 | 0.00 | 0.00 | 4.17 | 99 | 1011.9 |
| 20260510005148 | 20 | 155 | 3.2 | 17.7 | 0.00 | 0.00 | 4.17 | 99 | 1011.9 |
| 20260510004647 | 20 | 192 | 6.4 | 14.5 | 0.00 | 0.00 | 4.17 | 99 | 1012.2 |
| 20260510004147 | 20 | 209 | 6.4 | 16.1 | 0.13 | 0.00 | 4.17 | 99 | 1011.9 |
| 20260510003647 | 20 | 119 | 8.0 | 12.9 | 0.13 | 0.00 | 4.17 | 99 | 1011.9 |
| 20260510003147 | 20 | 100 | 3.2 | 9.7 | 0.00 | 0.00 | 4.14 | 99 | 1011.9 |
| 20260510002647 | 20 | 144 | 9.7 | 11.3 | 0.00 | 0.00 | 4.14 | 99 | 1011.9 |
| 20260510002147 | 20 | 146 | 4.8 | 8.0 | 0.00 | 0.00 | 4.14 | 99 | 1011.9 |
| 20260510001646 | 20 | 171 | 3.2 | 8.0 | 0.00 | 0.00 | 4.14 | 99 | 1011.9 |
| 20260510001147 | 20 | 179 | 0.0 | 8.0 | 0.00 | 0.00 | 4.14 | 99 | 1011.9 |
| 20260510000647 | 20 | 161 | 4.8 | 9.7 | 0.00 | 0.00 | 4.14 | 99 | 1011.9 |
| 20260510000146 | 20 | 178 | 3.2 | 8.0 | 0.00 | 0.00 | 4.14 | 99 | 1011.9 |
| 20260509235646 | 20 | 177 | 3.2 | 9.7 | 0.00 | 0.00 | 4.14 | 99 | 1011.9 |
| 20260509235146 | 20 | 151 | 3.2 | 9.7 | 0.00 | 0.00 | 4.14 | 99 | 1011.9 |
| 20260509234647 | 20 | 182 | 4.8 | 6.4 | 0.00 | 0.00 | 4.14 | 99 | 1011.9 |
| 20260509234146 | 20 | 170 | 4.8 | 9.7 | 0.00 | 0.00 | 4.14 | 99 | 1011.9 |
| 20260509233646 | 20 | 142 | 3.2 | 8.0 | 0.05 | 0.00 | 4.14 | 99 | 1011.9 |
| 20260509233146 | 20 | 127 | 3.2 | 6.4 | 0.18 | 0.00 | 4.14 | 99 | 1011.5 |
| 20260509232646 | 20 | 126 | 3.2 | 9.7 | 0.18 | 0.00 | 4.14 | 99 | 1011.9 |
| 20260509232146 | 20 | 30 | 3.2 | 4.8 | 0.23 | 0.00 | 4.11 | 99 | 1011.9 |
| 20260509231647 | 20 | 208 | 0.0 | 4.8 | 0.18 | 0.00 | 4.09 | 99 | 1012.2 |
| 20260509231146 | 20 | 207 | 3.2 | 8.0 | 0.13 | 0.00 | 4.09 | 99 | 1011.9 |
| 20260509230647 | 20 | 156 | 8.0 | 11.3 | 0.18 | 0.00 | 4.06 | 99 | 1011.9 |
| 20260509230147 | 20 | 143 | 9.7 | 11.3 | 0.23 | 0.00 | 4.06 | 99 | 1011.9 |
| 20260509225646 | 20 | 170 | 4.8 | 8.0 | 0.13 | 0.00 | 4.04 | 99 | 1011.9 |
| 20260509225146 | 20 | 166 | 8.0 | 11.3 | 0.05 | 0.00 | 4.01 | 99 | 1012.2 |
| 20260509224647 | 20 | 170 | 6.4 | 8.0 | 0.05 | 0.00 | 4.01 | 99 | 1012.2 |
| 20260509224146 | 20 | 172 | 8.0 | 8.0 | 0.00 | 0.00 | 4.01 | 99 | 1011.9 |
| 20260509223648 | 20 | 170 | 6.4 | 8.0 | 0.00 | 0.00 | 4.01 | 99 | 1011.9 |
| 20260509223147 | 20 | 171 | 6.4 | 8.0 | 0.00 | 0.00 | 4.01 | 99 | 1011.9 |
| 20260509222646 | 20 | 167 | 6.4 | 11.3 | 0.00 | 0.00 | 4.01 | 98 | 1011.5 |
| 20260509222147 | 20 | 176 | 6.4 | 9.7 | 0.05 | 0.00 | 4.01 | 98 | 1011.5 |
| 20260509221647 | 21 | 144 | 4.8 | 8.0 | 0.05 | 0.00 | 4.01 | 98 | 1011.2 |
| 20260509221146 | 21 | 254 | 0.0 | 4.8 | 0.00 | 0.00 | 3.99 | 98 | 1011.2 |
| 20260509220646 | 20 | 0 | 0.0 | 3.2 | 0.00 | 0.00 | 3.99 | 98 | 1010.8 |
| 20260509220146 | 20 | 201 | 3.2 | 4.8 | 0.05 | 0.00 | 3.99 | 98 | 1011.2 |
| 20260509215646 | 21 | 315 | 0.0 | 3.2 | 0.05 | 0.00 | 3.99 | 98 | 1011.2 |
| 20260509215146 | 20 | 195 | 0.0 | 6.4 | 0.05 | 0.00 | 3.99 | 98 | 1011.5 |
| 20260509214647 | 20 | 189 | 4.8 | 4.8 | 0.05 | 0.00 | 3.99 | 98 | 1011.2 |
| 20260509214146 | 20 | 203 | 1.6 | 8.0 | 0.05 | 0.00 | 3.99 | 98 | 1011.5 |
| 20260509213647 | 20 | 179 | 6.4 | 14.5 | 0.00 | 0.00 | 3.96 | 98 | 1011.5 |
| 20260509213146 | 20 | 186 | 9.7 | 14.5 | 0.00 | 0.00 | 3.96 | 98 | 1011.2 |
| 20260509212646 | 20 | 172 | 8.0 | 14.5 | 0.00 | 0.00 | 3.96 | 98 | 1011.2 |
| 20260509212147 | 20 | 168 | 11.3 | 17.7 | 0.00 | 0.00 | 3.96 | 97 | 1011.2 |
| 20260509211646 | 20 | 154 | 8.0 | 9.7 | 0.00 | 0.00 | 3.96 | 97 | 1011.2 |
| 20260509211147 | 20 | 169 | 9.7 | 17.7 | 0.00 | 0.00 | 3.96 | 97 | 1011.2 |
| 20260509210649 | 20 | 138 | 6.4 | 14.5 | 0.00 | 0.00 | 3.96 | 97 | 1010.8 |
| 20260509210146 | 20 | 155 | 9.7 | 14.5 | 0.00 | 0.00 | 3.96 | 97 | 1011.2 |
| 20260509205646 | 20 | 180 | 4.8 | 8.0 | 0.00 | 0.00 | 3.96 | 98 | 1011.2 |
| 20260509205146 | 20 | 349 | 3.2 | 6.4 | 0.00 | 0.00 | 3.96 | 98 | 1010.8 |
| 20260509204646 | 20 | 102 | 1.6 | 8.0 | 0.00 | 0.00 | 3.96 | 98 | 1010.8 |
| 20260509204147 | 20 | 150 | 6.4 | 9.7 | 0.00 | 0.00 | 3.96 | 99 | 1010.8 |
| 20260509203646 | 20 | 227 | 4.8 | 12.9 | 0.00 | 0.00 | 3.96 | 99 | 1011.2 |
| 20260509203147 | 20 | 133 | 6.4 | 8.0 | 0.00 | 0.00 | 3.96 | 99 | 1010.8 |
| 20260509202647 | 20 | 168 | 3.2 | 9.7 | 0.00 | 0.00 | 3.96 | 99 | 1011.2 |
| 20260509202147 | 20 | 348 | 4.8 | 8.0 | 0.00 | 0.00 | 3.96 | 99 | 1011.5 |
| 20260509201646 | 20 | 253 | 1.6 | 6.4 | 0.00 | 0.00 | 3.96 | 99 | 1011.5 |
| 20260509201147 | 20 | 177 | 3.2 | 6.4 | 0.05 | 0.00 | 3.96 | 99 | 1011.9 |
| 20260509200646 | 20 | 161 | 6.4 | 8.0 | 0.05 | 0.00 | 3.96 | 99 | 1012.2 |
| 20260509200146 | 20 | 159 | 3.2 | 8.0 | 0.13 | 0.00 | 3.96 | 99 | 1012.2 |
| 20260509195646 | 20 | 84 | 3.2 | 9.7 | 0.23 | 0.00 | 3.96 | 99 | 1012.2 |
| 20260509195146 | 20 | 308 | 1.6 | 8.0 | 0.30 | 0.00 | 3.94 | 99 | 1012.2 |
| 20260509194646 | 20 | 177 | 6.4 | 11.3 | 0.36 | 0.00 | 3.91 | 99 | 1011.9 |
| 20260509194147 | 20 | 176 | 3.2 | 9.7 | 0.30 | 0.00 | 3.89 | 99 | 1011.9 |
| 20260509193646 | 20 | 175 | 3.2 | 9.7 | 0.23 | 0.00 | 3.86 | 99 | 1012.2 |
| 20260509193146 | 20 | 184 | 3.2 | 8.0 | 0.18 | 0.00 | 3.84 | 99 | 1012.2 |
| 20260509192647 | 20 | 147 | 4.8 | 6.4 | 0.13 | 0.00 | 3.81 | 99 | 1012.2 |
| 20260509192147 | 20 | 10 | 1.6 | 4.8 | 0.05 | 0.00 | 3.81 | 99 | 1012.5 |
| 20260509191647 | 20 | 289 | 3.2 | 4.8 | 0.13 | 0.00 | 3.81 | 99 | 1012.5 |
| 20260509191146 | 20 | 261 | 0.0 | 6.4 | 0.23 | 0.00 | 3.78 | 99 | 1012.9 |
| 20260509190647 | 20 | 214 | 4.8 | 9.7 | 0.18 | 0.00 | 3.76 | 99 | 1012.9 |
| 20260509190147 | 20 | 173 | 1.6 | 9.7 | 0.13 | 0.00 | 3.76 | 99 | 1012.9 |
| 20260509185648 | 19 | 169 | 6.4 | 8.0 | 0.23 | 0.00 | 3.73 | 99 | 1012.9 |
| 20260509185147 | 19 | 249 | 1.6 | 8.0 | 0.30 | 0.00 | 3.73 | 99 | 1012.5 |
| 20260509184647 | 19 | 156 | 6.4 | 8.0 | 0.18 | 0.00 | 3.71 | 99 | 1012.5 |
| 20260509184147 | 19 | 292 | 1.6 | 8.0 | 0.13 | 0.00 | 3.68 | 99 | 1012.5 |
| 20260509183647 | 19 | 200 | 4.8 | 6.4 | 0.23 | 0.00 | 3.68 | 99 | 1012.2 |
| 20260509183146 | 19 | 22 | 0.0 | 6.4 | 0.36 | 0.00 | 3.66 | 99 | 1012.2 |
| 20260509182647 | 19 | 340 | 3.2 | 9.7 | 0.30 | 0.00 | 3.63 | 99 | 1012.5 |
| 20260509182147 | 19 | 190 | 9.7 | 9.7 | 0.23 | 0.00 | 3.61 | 99 | 1012.9 |
| 20260509181646 | 19 | 147 | 8.0 | 14.5 | 0.18 | 0.00 | 3.58 | 99 | 1012.9 |
| 20260509181147 | 19 | 177 | 4.8 | 11.3 | 0.05 | 0.00 | 3.56 | 99 | 1012.5 |
| 20260509180646 | 19 | 182 | 4.8 | 11.3 | 0.05 | 0.00 | 3.56 | 99 | 1012.9 |
| 20260509180146 | 19 | 148 | 6.4 | 6.4 | 0.05 | 0.00 | 3.56 | 99 | 1012.5 |
| 20260509175646 | 19 | 344 | 3.2 | 8.0 | 0.05 | 0.00 | 3.53 | 99 | 1012.5 |
| 20260509175147 | 19 | 297 | 4.8 | 8.0 | 0.18 | 0.00 | 3.53 | 99 | 1012.2 |
| 20260509174647 | 19 | 129 | 3.2 | 11.3 | 0.43 | 0.00 | 3.53 | 99 | 1012.5 |
| 20260509174146 | 19 | 142 | 4.8 | 9.7 | 0.43 | 0.00 | 3.51 | 99 | 1012.5 |
| 20260509173647 | 19 | 73 | 8.0 | 12.9 | 0.30 | 0.00 | 3.45 | 99 | 1011.9 |
| 20260509173146 | 19 | 4 | 4.8 | 12.9 | 0.43 | 0.00 | 3.43 | 99 | 1012.9 |
| 20260509172646 | 19 | 158 | 6.4 | 17.7 | 0.84 | 0.00 | 3.40 | 99 | 1012.9 |
| 20260509172148 | 19 | 327 | 3.2 | 8.0 | 0.84 | 0.00 | 3.35 | 99 | 1013.2 |
| 20260509171646 | 19 | 47 | 4.8 | 8.0 | 0.43 | 0.00 | 3.25 | 99 | 1013.2 |
| 20260509171147 | 19 | 52 | 3.2 | 8.0 | 0.97 | 0.00 | 3.23 | 99 | 1013.5 |
| 20260509170647 | 19 | 193 | 4.8 | 6.4 | 2.03 | 0.00 | 3.17 | 99 | 1013.2 |
| 20260509170148 | 18 | 75 | 6.4 | 9.7 | 2.16 | 0.00 | 3.05 | 99 | 1013.2 |
| 20260509165649 | 18 | 19 | 0.0 | 16.1 | 1.63 | 0.00 | 2.84 | 99 | 1013.2 |
| 20260509165146 | 18 | 107 | 4.8 | 8.0 | 1.02 | 0.00 | 2.67 | 99 | 1013.5 |
| 20260509164647 | 18 | 30 | 4.8 | 12.9 | 0.89 | 0.00 | 2.57 | 99 | 1013.2 |
| 20260509164150 | 18 | 49 | 16.1 | 19.3 | 0.71 | 0.00 | 2.49 | 99 | 1013.2 |
| 20260509163646 | 19 | 45 | 12.9 | 19.3 | 0.36 | 0.00 | 2.41 | 99 | 1013.5 |
| 20260509163148 | 18 | 41 | 11.3 | 20.9 | 0.18 | 0.00 | 2.36 | 98 | 1013.5 |
| 20260509162647 | 18 | 72 | 14.5 | 22.5 | 0.36 | 0.00 | 2.36 | 99 | 1013.2 |
| 20260509162147 | 18 | 69 | 14.5 | 25.7 | 0.43 | 0.00 | 2.34 | 99 | 1013.2 |
| 20260509161647 | 18 | 66 | 9.7 | 19.3 | 0.53 | 0.00 | 2.29 | 99 | 1013.2 |
| 20260509161150 | 18 | 50 | 14.5 | 20.9 | 0.89 | 0.00 | 2.26 | 99 | 1013.5 |
| 20260509160646 | 19 | 54 | 17.7 | 20.9 | 0.79 | 0.00 | 2.21 | 99 | 1013.5 |
| 20260509160146 | 19 | 73 | 12.9 | 20.9 | 0.43 | 0.00 | 2.11 | 99 | 1013.5 |
| 20260509155647 | 19 | 70 | 11.3 | 16.1 | 1.07 | 0.00 | 2.06 | 99 | 1013.5 |
| 20260509155149 | 19 | 25 | 3.2 | 22.5 | 1.75 | 0.00 | 2.01 | 98 | 1013.5 |
| 20260509154648 | 19 | 78 | 8.0 | 24.1 | 1.50 | 0.00 | 1.85 | 98 | 1013.2 |
| 20260509154146 | 19 | 59 | 6.4 | 14.5 | 1.27 | 0.00 | 1.73 | 97 | 1013.5 |
| 20260509153646 | 19 | 29 | 9.7 | 19.3 | 0.79 | 0.00 | 1.60 | 96 | 1013.2 |
| 20260509153147 | 20 | 6 | 8.0 | 16.1 | 0.18 | 0.00 | 1.50 | 96 | 1012.9 |
| 20260509152648 | 20 | 52 | 14.5 | 30.6 | 0.00 | 0.00 | 1.47 | 95 | 1012.9 |
| 20260509152148 | 20 | 36 | 11.3 | 25.7 | 0.00 | 0.00 | 1.47 | 95 | 1012.9 |
| 20260509151647 | 20 | 37 | 4.8 | 14.5 | 0.00 | 0.00 | 1.47 | 95 | 1013.2 |
| 20260509151149 | 20 | 12 | 8.0 | 24.1 | 0.00 | 0.00 | 1.47 | 95 | 1012.9 |
| 20260509150648 | 20 | 94 | 6.4 | 27.4 | 0.00 | 0.00 | 1.47 | 96 | 1012.9 |
| 20260509150149 | 20 | 56 | 24.1 | 29.0 | 0.00 | 0.00 | 1.47 | 96 | 1012.5 |
| 20260509145649 | 20 | 64 | 14.5 | 24.1 | 0.00 | 0.00 | 1.47 | 96 | 1012.9 |
| 20260509145148 | 20 | 23 | 8.0 | 20.9 | 0.00 | 0.00 | 1.47 | 97 | 1012.9 |
| 20260509144647 | 20 | 8 | 4.8 | 20.9 | 0.00 | 0.00 | 1.47 | 97 | 1012.9 |
| 20260509144148 | 20 | 59 | 19.3 | 30.6 | 0.05 | 0.00 | 1.47 | 98 | 1012.5 |
| 20260509143649 | 20 | 28 | 9.7 | 24.1 | 0.18 | 0.00 | 1.47 | 98 | 1012.5 |
| 20260509143147 | 20 | 42 | 14.5 | 19.3 | 0.30 | 0.00 | 1.47 | 99 | 1012.9 |
| 20260509142648 | 20 | 32 | 6.4 | 22.5 | 0.13 | 0.00 | 1.45 | 99 | 1012.5 |
| 20260509142148 | 20 | 28 | 12.9 | 22.5 | 0.05 | 0.00 | 1.42 | 99 | 1012.9 |
| 20260509141650 | 20 | 28 | 8.0 | 20.9 | 0.13 | 0.00 | 1.42 | 99 | 1013.2 |
| 20260509141148 | 20 | 28 | 11.3 | 19.3 | 0.43 | 0.00 | 1.42 | 99 | 1012.9 |
| 20260509140650 | 20 | 16 | 8.0 | 16.1 | 0.48 | 0.00 | 1.40 | 99 | 1013.2 |
| 20260509140147 | 20 | 340 | 4.8 | 8.0 | 0.43 | 0.00 | 1.35 | 99 | 1013.2 |
| 20260509135646 | 19 | 329 | 8.0 | 11.3 | 0.48 | 0.00 | 1.32 | 99 | 1013.5 |
| 20260509135151 | 19 | 299 | 14.5 | 17.7 | 0.61 | 0.00 | 1.27 | 99 | 1013.5 |
| 20260509134647 | 19 | 339 | 6.4 | 17.7 | 0.48 | 0.00 | 1.22 | 99 | 1013.2 |
| 20260509134146 | 19 | 301 | 4.8 | 14.5 | 1.07 | 0.00 | 1.17 | 99 | 1012.9 |
| 20260509133649 | 19 | 348 | 8.0 | 14.5 | 1.32 | 0.00 | 1.14 | 99 | 1012.9 |
| 20260509133151 | 19 | 328 | 11.3 | 20.9 | 1.93 | 0.00 | 0.97 | 99 | 1012.9 |
| 20260509132648 | 19 | 313 | 14.5 | 27.4 | 3.53 | 0.00 | 0.89 | 99 | 1012.9 |
| 20260509132146 | 19 | 293 | 14.5 | 24.1 | 3.89 | 0.00 | 0.66 | 98 | 1012.9 |
| 20260509131646 | 20 | 322 | 17.7 | 35.4 | 1.75 | 0.00 | 0.28 | 93 | 1012.9 |
| 20260509131149 | 23 | 346 | 14.5 | 37.0 | 0.00 | 0.00 | 0.00 | 90 | 1012.5 |
| 20260509130650 | 24 | 260 | 4.8 | 11.3 | 0.00 | 0.00 | 0.00 | 96 | 1011.9 |
| 20260509130147 | 24 | 213 | 4.8 | 8.0 | 0.00 | 0.00 | 0.00 | 96 | 1011.2 |
| 20260509125647 | 23 | 170 | 11.3 | 17.7 | 0.00 | 0.00 | 0.00 | 96 | 1010.8 |
| 20260509125147 | 23 | 189 | 11.3 | 19.3 | 0.00 | 0.00 | 0.00 | 96 | 1010.5 |
| 20260509124649 | 23 | 168 | 4.8 | 8.0 | 0.00 | 0.00 | 0.00 | 96 | 1010.8 |
| 20260509124148 | 23 | 201 | 4.8 | 14.5 | 0.00 | 0.00 | 0.00 | 96 | 1010.5 |
| 20260509123646 | 23 | 184 | 8.0 | 12.9 | 0.00 | 0.00 | 0.00 | 96 | 1010.5 |
| 20260509123149 | 23 | 162 | 11.3 | 17.7 | 0.00 | 0.00 | 0.00 | 96 | 1010.2 |
| 20260509122646 | 23 | 186 | 6.4 | 11.3 | 0.00 | 0.00 | 0.00 | 96 | 1010.5 |
| 20260509122148 | 23 | 143 | 8.0 | 12.9 | 0.00 | 0.00 | 0.00 | 96 | 1010.5 |
| 20260509121649 | 23 | 168 | 9.7 | 16.1 | 0.00 | 0.00 | 0.00 | 96 | 1010.2 |
| 20260509121147 | 22 | 178 | 9.7 | 14.5 | 0.00 | 0.00 | 0.00 | 97 | 1010.2 |
| 20260509120647 | 22 | 160 | 9.7 | 14.5 | 0.00 | 0.00 | 0.00 | 97 | 1010.2 |
| 20260509120146 | 22 | 184 | 6.4 | 11.3 | 0.00 | 0.00 | 0.00 | 96 | 1010.2 |
| 20260509115646 | 22 | 167 | 4.8 | 9.7 | 0.00 | 0.00 | 0.00 | 96 | 1010.2 |
| 20260509115147 | 22 | 165 | 4.8 | 9.7 | 0.00 | 0.00 | 0.00 | 96 | 1009.8 |
| 20260509114647 | 22 | 152 | 4.8 | 9.7 | 0.00 | 0.00 | 0.00 | 96 | 1010.2 |
| 20260509114150 | 22 | 163 | 4.8 | 8.0 | 0.00 | 0.00 | 0.00 | 96 | 1010.2 |
| 20260509113651 | 22 | 84 | 3.2 | 8.0 | 0.00 | 0.00 | 0.00 | 96 | 1009.8 |
| 20260509113150 | 22 | 150 | 3.2 | 6.4 | 0.00 | 0.00 | 0.00 | 95 | 1009.8 |
| 20260509112647 | 22 | 155 | 4.8 | 8.0 | 0.00 | 0.00 | 0.00 | 95 | 1009.8 |
| 20260509112150 | 22 | 163 | 3.2 | 6.4 | 0.00 | 0.00 | 0.00 | 95 | 1009.5 |
| 20260509111647 | 22 | 141 | 8.0 | 11.3 | 0.00 | 0.00 | 0.00 | 94 | 1009.5 |
| 20260509111148 | 22 | 185 | 4.8 | 9.7 | 0.00 | 0.00 | 0.00 | 94 | 1009.8 |
| 20260509110647 | 22 | 182 | 4.8 | 11.3 | 0.00 | 0.00 | 0.00 | 93 | 1009.8 |
| 20260509110152 | 22 | 168 | 9.7 | 11.3 | 0.00 | 0.00 | 0.00 | 93 | 1009.5 |
| 20260509105646 | 22 | 164 | 6.4 | 9.7 | 0.00 | 0.00 | 0.00 | 93 | 1009.5 |
| 20260509105148 | 22 | 168 | 6.4 | 12.9 | 0.00 | 0.00 | 0.00 | 93 | 1009.8 |
| 20260509104646 | 22 | 146 | 14.5 | 14.5 | 0.00 | 0.00 | 0.00 | 93 | 1009.5 |
| 20260509104147 | 22 | 150 | 4.8 | 12.9 | 0.00 | 0.00 | 0.00 | 93 | 1009.1 |
| 20260509103646 | 22 | 194 | 4.8 | 12.9 | 0.00 | 0.00 | 0.00 | 92 | 1009.8 |
| 20260509103146 | 22 | 176 | 8.0 | 11.3 | 0.00 | 0.00 | 0.00 | 92 | 1009.5 |
| 20260509102647 | 22 | 139 | 9.7 | 17.7 | 0.00 | 0.00 | 0.00 | 92 | 1009.1 |
| 20260509102146 | 22 | 147 | 14.5 | 20.9 | 0.00 | 0.00 | 0.00 | 92 | 1008.8 |
| 20260509101647 | 22 | 175 | 11.3 | 16.1 | 0.00 | 0.00 | 0.00 | 92 | 1009.1 |
| 20260509101150 | 22 | 172 | 6.4 | 19.3 | 0.00 | 0.00 | 0.00 | 91 | 1009.1 |
| 20260509100651 | 22 | 150 | 14.5 | 22.5 | 0.00 | 0.00 | 0.00 | 91 | 1009.1 |
| 20260509100146 | 22 | 135 | 9.7 | 19.3 | 0.00 | 0.00 | 0.00 | 91 | 1008.8 |
| 20260509095650 | 22 | 160 | 8.0 | 14.5 | 0.00 | 0.00 | 0.00 | 91 | 1009.1 |
| 20260509095146 | 22 | 161 | 4.8 | 11.3 | 0.00 | 0.00 | 0.00 | 91 | 1009.1 |
| 20260509094648 | 22 | 76 | 4.8 | 14.5 | 0.00 | 0.00 | 0.00 | 91 | 1009.1 |
| 20260509094146 | 22 | 128 | 12.9 | 16.1 | 0.00 | 0.00 | 0.00 | 91 | 1009.1 |
| 20260509093648 | 22 | 154 | 11.3 | 20.9 | 0.00 | 0.00 | 0.00 | 91 | 1009.1 |
| 20260509093149 | 22 | 152 | 8.0 | 11.3 | 0.00 | 0.00 | 0.00 | 91 | 1009.1 |
| 20260509092648 | 22 | 146 | 9.7 | 14.5 | 0.00 | 0.00 | 0.00 | 91 | 1009.1 |
| 20260509092147 | 22 | 125 | 6.4 | 12.9 | 0.00 | 0.00 | 0.00 | 90 | 1009.1 |
| 20260509091646 | 22 | 145 | 12.9 | 17.7 | 0.00 | 0.00 | 0.00 | 90 | 1009.1 |
| 20260509091147 | 22 | 149 | 11.3 | 14.5 | 0.00 | 0.00 | 0.00 | 90 | 1009.1 |
| 20260509090646 | 22 | 150 | 4.8 | 9.7 | 0.00 | 0.00 | 0.00 | 90 | 1009.5 |
| 20260509090151 | 22 | 144 | 6.4 | 14.5 | 0.00 | 0.00 | 0.00 | 90 | 1009.1 |
| 20260509085647 | 22 | 147 | 4.8 | 16.1 | 0.00 | 0.00 | 0.00 | 89 | 1009.5 |
| 20260509085148 | 22 | 163 | 4.8 | 16.1 | 0.00 | 0.00 | 0.00 | 89 | 1009.5 |
| 20260509084646 | 22 | 165 | 11.3 | 14.5 | 0.00 | 0.00 | 0.00 | 89 | 1009.8 |
| 20260509084146 | 22 | 150 | 8.0 | 12.9 | 0.00 | 0.00 | 0.00 | 89 | 1009.8 |
| 20260509083648 | 22 | 147 | 4.8 | 11.3 | 0.00 | 0.00 | 0.00 | 89 | 1009.8 |
| 20260509083148 | 22 | 146 | 8.0 | 12.9 | 0.00 | 0.00 | 0.00 | 90 | 1010.2 |
| 20260509082646 | 22 | 213 | 4.8 | 12.9 | 0.00 | 0.00 | 0.00 | 90 | 1010.2 |
| 20260509082147 | 22 | 150 | 6.4 | 11.3 | 0.00 | 0.00 | 0.00 | 89 | 1010.2 |
| 20260509081650 | 22 | 157 | 4.8 | 12.9 | 0.00 | 0.00 | 0.00 | 89 | 1010.5 |
| 20260509081150 | 22 | 158 | 4.8 | 9.7 | 0.00 | 0.00 | 0.00 | 89 | 1010.5 |
| 20260509080648 | 22 | 191 | 1.6 | 9.7 | 0.00 | 0.00 | 0.00 | 89 | 1010.5 |
| 20260509080148 | 22 | 117 | 6.4 | 11.3 | 0.00 | 0.00 | 0.00 | 89 | 1010.5 |